WB5OMR-9 Weather Reports


time (UTC)temp
F
wind
direction
speed
knots
gust
knots
rain 1hr
in
rain 24hr
in
rain mn
in
humidity
%
barometer
mb
20260906213900 106 135 0.0 0.0 0.00 0.00 0.00 31 1011.5
20260906212859 105 67 0.0 0.0 0.00 0.00 0.00 32 1011.5
20260906211858 104 112 0.0 0.0 0.00 0.00 0.00 34 1011.5
20260906210857 104 135 0.0 0.0 0.00 0.00 0.00 34 1011.9
20260906205856 103 270 0.0 0.0 0.00 0.00 0.00 34 1011.9
20260906204854 104 135 0.0 0.0 0.00 0.00 0.00 34 1012.2
20260906203810 104 202 0.0 0.0 0.00 0.00 0.00 34 1012.2
20260906202809 103 90 0.0 0.0 0.00 0.00 0.00 34 1012.2
20260906201809 103 135 0.0 0.0 0.00 0.00 0.00 36 1012.2
20260906200808 102 157 0.0 0.0 0.00 0.00 0.00 36 1012.5
20260906195807 102 225 0.0 0.0 0.00 0.00 0.00 38 1012.5
20260906194804 104 157 0.0 0.0 0.00 0.00 0.00 36 1012.5
20260906193803 103 202 0.0 0.0 0.00 0.00 0.00 37 1013.2
20260906192802 102 247 0.0 0.0 0.00 0.00 0.00 38 1013.2
20260906191801 103 135 0.0 0.0 0.00 0.00 0.00 38 1013.2
20260906190800 104 157 0.0 0.0 0.00 0.00 0.00 37 1013.5
20260906185800 104 247 0.0 0.0 0.00 0.00 0.00 39 1013.5
20260906184759 104 157 0.0 0.0 0.00 0.00 0.00 39 1013.9
20260906183757 103 112 0.0 0.0 0.00 0.00 0.00 40 1013.9
20260906182756 102 157 0.0 0.0 0.00 0.00 0.00 40 1014.2
20260906181756 100 67 0.0 0.0 0.00 0.00 0.00 42 1014.6
20260906180754 99 112 0.0 0.0 0.00 0.00 0.00 44 1014.2
20260906175753 99 180 0.0 0.0 0.00 0.00 0.00 45 1013.9
20260906174751 99 180 0.0 0.0 0.00 0.00 0.00 45 1013.9
20260906173708 98 135 0.0 0.0 0.00 0.00 0.00 47 1014.2
20260906172624 98 202 0.0 0.0 0.00 0.00 0.00 48 1014.6
20260906171623 97 180 0.0 0.0 0.00 0.00 0.00 49 1014.9
20260906170622 96 157 0.0 0.0 0.00 0.00 0.00 50 1014.9
20260906165621 97 135 0.0 0.0 0.00 0.00 0.00 50 1014.9
20260906164620 96 202 0.0 0.0 0.00 0.00 0.00 51 1014.9
20260906163537 94 112 0.0 0.0 0.00 0.00 0.00 53 1014.9
20260906162536 94 157 0.0 0.0 0.00 0.00 0.00 54 1014.9
20260906161535 94 202 0.0 0.0 0.00 0.00 0.00 53 1014.9
20260906160535 93 247 0.0 0.0 0.00 0.00 0.00 55 1014.9
20260906155534 93 247 0.0 0.0 0.00 0.00 0.00 56 1014.9
20260906154532 92 247 0.0 0.0 0.00 0.00 0.00 56 1014.6
20260906153449 92 247 0.0 0.0 0.00 0.00 0.00 57 1014.6
20260906152406 91 247 0.0 0.0 0.00 0.00 0.00 59 1014.6
20260906151405 90 247 0.0 0.0 0.00 0.00 0.00 60 1014.6
20260906150404 89 247 0.0 0.0 0.00 0.00 0.00 63 1014.6
20260906145403 87 247 0.0 0.0 0.00 0.00 0.00 65 1014.6
20260906144402 86 247 0.0 0.0 0.00 0.00 0.00 68 1014.2
20260906143401 83 135 0.0 0.0 0.00 0.00 0.00 72 1014.2
20260906142400 81 180 0.0 0.0 0.00 0.00 0.00 74 1014.6
20260906141359 80 180 0.0 0.0 0.00 0.00 0.00 76 1014.2
20260906140358 80 157 0.0 0.0 0.00 0.00 0.00 77 1014.2
20260906135357 79 135 0.0 0.0 0.00 0.00 0.00 78 1014.2
20260906134356 79 180 0.0 0.0 0.00 0.00 0.00 79 1014.2
20260906133355 78 157 0.0 0.0 0.00 0.00 0.00 80 1013.9
20260906132354 77 157 0.0 0.0 0.00 0.00 0.00 80 1013.9
20260906131309 77 112 0.0 0.0 0.00 0.00 0.00 80 1013.9
20260906130308 76 112 0.0 0.0 0.00 0.00 0.00 80 1013.5
20260906125224 76 112 0.0 0.0 0.00 0.00 0.00 79 1013.5
20260906124141 76 112 0.0 0.0 0.00 0.00 0.00 79 1013.2
20260906123140 76 112 0.0 0.0 0.00 0.00 0.00 78 1013.2
20260906122140 76 112 0.0 0.0 0.00 0.00 0.00 78 1013.2
20260906121139 76 112 0.0 0.0 0.00 0.00 0.00 78 1013.2
20260906120138 76 112 0.0 0.0 0.00 0.00 0.00 77 1012.9
20260906115136 76 112 0.0 0.0 0.00 0.00 0.00 77 1013.2
20260906114053 76 112 0.0 0.0 0.00 0.00 0.00 77 1012.9
20260906113051 76 112 0.0 0.0 0.00 0.00 0.00 77 1012.9
20260906112050 77 112 0.0 0.0 0.00 0.00 0.00 77 1012.5
20260906111049 77 112 0.0 0.0 0.00 0.00 0.00 76 1012.5
20260906110048 77 112 0.0 0.0 0.00 0.00 0.00 77 1012.5
20260906105047 78 112 0.0 0.0 0.00 0.00 0.00 76 1012.2
20260906104046 78 135 0.0 0.0 0.00 0.00 0.00 75 1012.2
20260906103045 78 135 0.0 0.0 0.00 0.00 0.00 75 1012.2
20260906102044 78 180 0.0 0.0 0.00 0.00 0.00 75 1012.2
20260906101001 78 180 0.0 0.0 0.00 0.00 0.00 74 1011.9
20260906100000 78 180 0.0 0.0 0.00 0.00 0.00 74 1011.9
20260906094917 78 180 0.0 0.0 0.00 0.00 0.00 73 1011.9
20260906093834 79 180 0.0 0.0 0.00 0.00 0.00 73 1011.9
20260906092833 79 180 0.0 0.0 0.00 0.00 0.00 72 1011.9
20260906091832 80 22 0.0 0.0 0.00 0.00 0.00 72 1011.5
20260906090831 80 22 0.0 0.0 0.00 0.00 0.00 72 1011.5
20260906085830 80 22 0.0 0.0 0.00 0.00 0.00 72 1011.5
20260906084828 80 22 0.0 0.0 0.00 0.00 0.00 71 1011.9
20260906083828 80 45 0.0 0.0 0.00 0.00 0.00 71 1011.9
20260906082827 81 45 0.0 0.0 0.00 0.00 0.00 71 1011.9
20260906081825 81 112 0.0 0.0 0.00 0.00 0.00 71 1011.9
20260906080825 81 112 0.0 0.0 0.00 0.00 0.00 72 1011.9
20260906075824 81 67 0.0 0.0 0.00 0.00 0.00 71 1012.2
20260906074823 81 67 0.0 0.0 0.00 0.00 0.00 72 1012.2
20260906073822 81 112 0.0 0.0 0.00 0.00 0.00 71 1012.5
20260906072821 82 157 0.0 0.0 0.00 0.00 0.00 71 1012.5
20260906071738 82 180 0.0 0.0 0.00 0.00 0.00 70 1012.9
20260906070737 82 247 0.0 0.0 0.00 0.00 0.00 68 1013.2
20260906065653 83 180 0.0 0.0 0.00 0.00 0.00 67 1012.9
20260906064652 83 157 0.0 0.0 0.00 0.00 0.00 66 1013.2
20260906063650 83 157 0.0 0.0 0.00 0.00 0.00 65 1013.2
20260906062649 84 180 0.0 0.0 0.00 0.00 0.00 64 1013.2
20260906061648 84 157 0.0 0.0 0.00 0.00 0.00 64 1013.2
20260906060647 84 157 0.0 0.0 0.00 0.00 0.00 63 1013.2
20260906055645 84 157 0.0 0.0 0.00 0.00 0.00 63 1013.5
20260906054601 84 135 0.0 0.0 0.00 0.00 0.00 63 1013.5
20260906053600 84 157 0.0 0.0 0.00 0.00 0.00 62 1013.2
20260906052559 85 135 0.0 0.0 0.00 0.00 0.00 62 1013.2
20260906051558 85 157 0.0 0.0 0.00 0.00 0.00 62 1013.2
20260906050558 85 135 0.0 0.0 0.00 0.00 0.00 61 1013.2
20260906045556 85 157 0.0 0.0 0.00 0.00 0.00 61 1013.2
20260906044555 85 135 0.0 0.0 0.00 0.00 0.00 60 1013.2
20260906043512 86 180 0.0 0.0 0.00 0.00 0.00 60 1013.2
20260906042511 86 157 0.0 0.0 0.00 0.00 0.00 59 1013.2
20260906041510 86 135 0.0 0.0 0.00 0.00 0.00 59 1013.2
20260906040509 87 157 0.0 0.0 0.00 0.00 0.00 58 1013.2
20260906035507 87 157 0.0 0.0 0.00 0.00 0.00 58 1013.2
20260906034506 87 135 0.0 0.0 0.00 0.00 0.00 57 1013.2
20260906033423 88 180 0.0 0.0 0.00 0.00 0.00 56 1012.9
20260906032339 88 135 0.0 0.0 0.00 0.00 0.00 55 1012.9
20260906031256 89 135 0.0 0.0 0.00 0.00 0.00 54 1012.5
20260906030255 89 157 0.0 0.0 0.00 0.00 0.00 54 1012.2
20260906025254 89 157 0.0 0.0 0.00 0.00 0.00 53 1011.5
20260906024252 90 157 0.0 0.0 0.00 0.00 0.00 51 1011.9
20260906023209 90 135 0.0 0.0 0.00 0.00 0.00 49 1012.2
20260906022208 90 112 0.0 0.0 0.00 0.00 0.00 48 1012.2
20260906021125 91 112 0.0 0.0 0.00 0.00 0.00 46 1011.9
20260906020042 91 112 0.0 0.0 0.00 0.00 0.00 45 1011.5
20260906014958 92 112 0.0 0.0 0.00 0.00 0.00 45 1011.2
20260906013914 92 135 0.0 0.0 0.00 0.00 0.00 44 1010.8
20260906012831 93 112 0.0 0.0 0.00 0.00 0.00 44 1010.8
20260906011830 94 112 0.0 0.0 0.00 0.00 0.00 43 1010.8
20260906010747 94 112 0.0 0.0 0.00 0.00 0.00 42 1010.5
20260906005703 95 90 0.0 0.0 0.00 0.00 0.00 42 1010.8
20260906004702 95 90 0.0 0.0 0.00 0.00 0.00 41 1010.8
20260906003701 96 112 0.0 0.0 0.00 0.00 0.00 40 1010.5
20260906002700 96 135 0.0 0.0 0.00 0.00 0.00 39 1010.5
20260906001659 97 90 0.0 0.0 0.00 0.00 0.00 38 1010.5
20260906000616 98 112 0.0 0.0 0.00 0.00 0.00 38 1010.5
20260905235615 99 135 0.0 0.0 0.00 0.00 0.00 38 1010.5
20260905234614 99 135 0.0 0.0 0.00 0.00 0.00 38 1010.5
20260905233613 100 247 0.0 0.0 0.00 0.00 0.00 39 1010.5
20260905232612 100 247 0.0 0.0 0.00 0.00 0.00 39 1010.5
20260905231611 100 247 0.0 0.0 0.00 0.00 0.00 38 1010.5
20260905230610 99 135 0.0 0.0 0.00 0.00 0.00 39 1010.5
20260905225609 100 135 0.0 0.0 0.00 0.00 0.00 38 1010.5
20260905224608 102 157 0.0 0.0 0.00 0.00 0.00 37 1010.5
20260905223607 103 247 0.0 0.0 0.00 0.00 0.00 36 1010.2
20260905222606 102 157 0.0 0.0 0.00 0.00 0.00 36 1010.5
20260905221605 103 112 0.0 0.0 0.00 0.00 0.00 36 1010.5
20260905220604 103 135 0.0 0.0 0.00 0.00 0.00 36 1010.5
20260905215604 103 157 0.0 0.0 0.00 0.00 0.00 38 1010.5